GPD224 KHPN-KACK

Flight info

Callsign GPD224
Flight time 0h 53m
Altitude 19000
Route BAYYS SEALL V188 GON DEEPO2
Aircraft PC12/L-SDFGRWY/S

Departure

Time 2026-04-29 15:45
Airport Westchester County Airport (KHPN)

Arrival

Time 2026-04-29 16:38
Airport Nantucket Memorial Airport (KACK)
Time Latitude Longitude Altitude Speed Heading
2026-04-29 15:30 41.06334 -73.70803 195 ft 0 kts 194°
2026-04-29 15:39 41.06321 -73.70821 415 ft 7 kts 264°
2026-04-29 15:39 41.06369 -73.70877 415 ft 11 kts 353°
2026-04-29 15:39 41.06441 -73.70823 416 ft 15 kts 89°
2026-04-29 15:40 41.06471 -73.70726 416 ft 14 kts
2026-04-29 15:40 41.06572 -73.70748 416 ft 16 kts 329°
2026-04-29 15:40 41.06680 -73.70830 416 ft 19 kts 331°
2026-04-29 15:40 41.06758 -73.70886 414 ft 20 kts 328°
2026-04-29 15:41 41.06931 -73.71020 414 ft 22 kts 331°
2026-04-29 15:41 41.07062 -73.71126 416 ft 22 kts 327°
2026-04-29 15:41 41.07198 -73.71226 416 ft 22 kts 332°
2026-04-29 15:41 41.07266 -73.71277 416 ft 0 kts 325°
2026-04-29 15:42 41.07309 -73.71313 412 ft 18 kts 327°
2026-04-29 15:42 41.07399 -73.71382 417 ft 21 kts 331°
2026-04-29 15:42 41.07455 -73.71425 412 ft 2 kts 330°
2026-04-29 15:42 41.07508 -73.71425 417 ft 4 kts 52°
2026-04-29 15:43 41.07509 -73.71422 417 ft 0 kts 56°
2026-04-29 15:43 41.07536 -73.71346 418 ft 16 kts 91°
2026-04-29 15:44 41.07409 -73.71215 417 ft 43 kts 148°
2026-04-29 15:44 41.07013 -73.70884 422 ft 87 kts 149°
2026-04-29 15:44 41.06453 -73.70477 665 ft 97 kts 151°
2026-04-29 15:44 41.05773 -73.70080 997 ft 116 kts 166°
2026-04-29 15:45 41.04988 -73.70343 1444 ft 124 kts 212°
2026-04-29 15:45 41.04718 -73.71477 1800 ft 148 kts 281°
2026-04-29 15:45 41.05253 -73.72701 2173 ft 158 kts 302°
2026-04-29 15:45 41.05905 -73.73892 2541 ft 162 kts 304°
2026-04-29 15:46 41.06594 -73.75095 2932 ft 164 kts 306°
2026-04-29 15:46 41.07295 -73.76278 3313 ft 169 kts 306°
2026-04-29 15:46 41.08046 -73.77547 3702 ft 179 kts 307°
2026-04-29 15:46 41.08838 -73.78878 4116 ft 188 kts 308°
2026-04-29 15:47 41.09658 -73.80258 4509 ft 193 kts 307°
2026-04-29 15:47 41.10493 -73.81670 4903 ft 196 kts 307°
2026-04-29 15:47 41.11342 -73.83109 5292 ft 199 kts 307°
2026-04-29 15:47 41.12198 -73.84559 5665 ft 201 kts 307°
2026-04-29 15:48 41.13062 -73.86028 6049 ft 202 kts 307°
2026-04-29 15:48 41.13931 -73.87507 6429 ft 204 kts 308°
2026-04-29 15:48 41.14804 -73.88992 6794 ft 204 kts 307°
2026-04-29 15:48 41.15679 -73.90479 7152 ft 205 kts 307°
2026-04-29 15:49 41.16556 -73.91968 7525 ft 205 kts 307°
2026-04-29 15:49 41.17550 -73.93284 7890 ft 204 kts 333°
2026-04-29 15:49 41.18948 -73.93355 8272 ft 209 kts 20°
2026-04-29 15:49 41.19993 -73.92039 8649 ft 213 kts 59°
2026-04-29 15:50 41.20654 -73.90277 9045 ft 214 kts 64°
2026-04-29 15:50 41.21249 -73.88454 9448 ft 216 kts 66°
2026-04-29 15:50 41.21818 -73.86631 9828 ft 216 kts 66°
2026-04-29 15:50 41.22349 -73.84884 10173 ft 218 kts 67°
2026-04-29 15:51 41.22916 -73.82973 10545 ft 219 kts 67°
2026-04-29 15:51 41.23474 -73.81075 10804 ft 225 kts 67°
2026-04-29 15:51 41.24055 -73.79094 10926 ft 235 kts 67°
2026-04-29 15:51 41.24663 -73.77028 10987 ft 245 kts 67°
2026-04-29 15:52 41.25290 -73.74888 11013 ft 251 kts 67°
2026-04-29 15:52 41.25934 -73.72702 11064 ft 254 kts 67°
2026-04-29 15:52 41.26568 -73.70550 11382 ft 246 kts 68°
2026-04-29 15:52 41.26864 -73.68342 11680 ft 242 kts 84°
2026-04-29 15:53 41.26952 -73.66153 11996 ft 239 kts 86°
2026-04-29 15:53 41.27011 -73.63942 12329 ft 238 kts 88°
2026-04-29 15:53 41.27060 -73.61745 12663 ft 238 kts 88°
2026-04-29 15:53 41.27111 -73.59553 12998 ft 238 kts 88°
2026-04-29 15:54 41.27169 -73.57357 13334 ft 238 kts 88°
2026-04-29 15:54 41.27233 -73.55156 13677 ft 238 kts 88°
2026-04-29 15:54 41.27300 -73.52956 14001 ft 238 kts 88°
2026-04-29 15:54 41.27362 -73.50755 14307 ft 238 kts 90°
2026-04-29 15:55 41.27401 -73.48545 14616 ft 239 kts 89°
2026-04-29 15:55 41.27456 -73.46354 14923 ft 240 kts 88°
2026-04-29 15:55 41.27528 -73.44140 15241 ft 241 kts 88°
2026-04-29 15:55 41.27605 -73.41910 15557 ft 242 kts 88°
2026-04-29 15:56 41.27680 -73.39676 15880 ft 243 kts 88°
2026-04-29 15:56 41.27752 -73.37421 16205 ft 244 kts 88°
2026-04-29 15:56 41.27823 -73.35159 16537 ft 245 kts 88°
2026-04-29 15:56 41.27893 -73.32887 16868 ft 247 kts 88°
2026-04-29 15:57 41.27963 -73.30568 17001 ft 257 kts 88°
2026-04-29 15:57 41.28034 -73.28139 17048 ft 267 kts 88°
2026-04-29 15:57 41.28107 -73.25634 17058 ft 276 kts 88°
2026-04-29 15:57 41.28182 -73.23098 17175 ft 277 kts 88°
2026-04-29 15:58 41.28256 -73.20571 17504 ft 271 kts 87°
2026-04-29 15:58 41.28329 -73.18089 17847 ft 266 kts 87°
2026-04-29 15:58 41.28401 -73.15643 18193 ft 263 kts 87°
2026-04-29 15:58 41.28472 -73.13213 18518 ft 261 kts 87°
2026-04-29 15:59 41.28542 -73.10802 18826 ft 260 kts 87°
2026-04-29 15:59 41.28611 -73.08386 19000 ft 266 kts 86°
2026-04-29 15:59 41.28679 -73.05906 19034 ft 269 kts 87°
2026-04-29 15:59 41.28746 -73.03403 19047 ft 273 kts 87°
2026-04-29 16:00 41.28814 -73.00852 19057 ft 279 kts 87°
2026-04-29 16:00 41.29076 -72.98292 19058 ft 281 kts 72°
2026-04-29 16:00 41.29834 -72.95953 19064 ft 280 kts 55°
2026-04-29 16:00 41.31047 -72.93955 19063 ft 276 kts 40°
2026-04-29 16:01 41.32484 -72.92249 19062 ft 276 kts 35°
2026-04-29 16:01 41.33976 -72.90637 19065 ft 277 kts 34°
2026-04-29 16:01 41.35473 -72.89019 19062 ft 278 kts 35°
2026-04-29 16:01 41.36886 -72.87250 19060 ft 282 kts 45°
2026-04-29 16:02 41.37985 -72.85069 19063 ft 287 kts 60°
2026-04-29 16:02 41.38673 -72.82569 19043 ft 290 kts 74°
2026-04-29 16:02 41.38896 -72.79893 19044 ft 291 kts 90°
2026-04-29 16:02 41.38683 -72.77213 19045 ft 291 kts 97°
2026-04-29 16:03 41.38457 -72.74538 19044 ft 291 kts 95°
2026-04-29 16:03 41.38264 -72.71845 19047 ft 291 kts 95°
2026-04-29 16:03 41.38079 -72.69161 19052 ft 291 kts 95°
2026-04-29 16:03 41.37891 -72.66509 19047 ft 291 kts 95°
2026-04-29 16:04 41.37696 -72.63825 19048 ft 291 kts 95°
2026-04-29 16:04 41.37497 -72.61146 19043 ft 291 kts 95°
2026-04-29 16:04 41.37294 -72.58465 19043 ft 290 kts 95°
2026-04-29 16:04 41.37089 -72.55795 19047 ft 290 kts 95°
2026-04-29 16:05 41.36883 -72.53129 19046 ft 290 kts 95°
2026-04-29 16:05 41.36675 -72.50470 19041 ft 290 kts 95°
2026-04-29 16:05 41.36466 -72.47799 19045 ft 289 kts 95°
2026-04-29 16:05 41.36257 -72.45135 19050 ft 290 kts 95°
2026-04-29 16:06 41.36048 -72.42472 19051 ft 290 kts 95°
2026-04-29 16:06 41.35839 -72.39831 19042 ft 289 kts 95°
2026-04-29 16:06 41.35629 -72.37169 19046 ft 289 kts 95°
2026-04-29 16:06 41.35418 -72.34506 19049 ft 289 kts 95°
2026-04-29 16:07 41.35207 -72.31845 19041 ft 289 kts 95°
2026-04-29 16:07 41.34996 -72.29192 19048 ft 288 kts 95°
2026-04-29 16:07 41.34783 -72.26537 19047 ft 288 kts 95°
2026-04-29 16:07 41.34570 -72.23879 19049 ft 288 kts 95°
2026-04-29 16:08 41.34357 -72.21232 19046 ft 288 kts 95°
2026-04-29 16:08 41.34143 -72.18578 19045 ft 288 kts 95°
2026-04-29 16:08 41.33934 -72.15995 19045 ft 288 kts 95°
2026-04-29 16:08 41.33720 -72.13348 19044 ft 287 kts 95°
2026-04-29 16:09 41.33505 -72.10702 19043 ft 287 kts 95°
2026-04-29 16:09 41.33290 -72.08066 19042 ft 287 kts 95°
2026-04-29 16:09 41.33143 -72.05447 19044 ft 286 kts 90°
2026-04-29 16:09 41.33176 -72.02766 19043 ft 285 kts 85°
2026-04-29 16:10 41.33304 -72.00172 19046 ft 285 kts 84°
2026-04-29 16:10 41.33443 -71.97540 19045 ft 285 kts 84°
2026-04-29 16:10 41.33581 -71.94904 19052 ft 285 kts 84°
2026-04-29 16:10 41.33717 -71.92270 19054 ft 285 kts 84°
2026-04-29 16:11 41.33851 -71.89633 19047 ft 286 kts 84°
2026-04-29 16:11 41.33984 -71.86992 19050 ft 286 kts 84°
2026-04-29 16:11 41.34116 -71.84350 19046 ft 286 kts 84°
2026-04-29 16:11 41.34247 -71.81714 19046 ft 286 kts 84°
2026-04-29 16:12 41.34378 -71.79079 19041 ft 286 kts 84°
2026-04-29 16:12 41.34465 -71.77329 19041 ft 286 kts 84°
2026-04-29 16:12 41.34639 -71.73797 19040 ft 285 kts 84°
2026-04-29 16:12 41.34768 -71.71168 19038 ft 285 kts 84°
2026-04-29 16:13 41.34896 -71.68538 19037 ft 285 kts 84°
2026-04-29 16:13 41.35024 -71.65909 19041 ft 285 kts 84°
2026-04-29 16:13 41.35151 -71.63279 19039 ft 285 kts 84°
2026-04-29 16:13 41.35276 -71.60685 19042 ft 284 kts 84°
2026-04-29 16:14 41.35398 -71.58136 19042 ft 284 kts 84°
2026-04-29 16:14 41.35523 -71.55518 19044 ft 284 kts 84°
2026-04-29 16:14 41.35648 -71.52894 19062 ft 284 kts 84°
2026-04-29 16:14 41.35771 -71.50276 19063 ft 283 kts 84°
2026-04-29 16:15 41.35895 -71.47658 19066 ft 283 kts 84°
2026-04-29 16:15 41.36004 -71.45042 19064 ft 283 kts 87°
2026-04-29 16:15 41.35802 -71.42436 19063 ft 285 kts 101°
2026-04-29 16:15 41.35118 -71.39962 19063 ft 285 kts 117°
2026-04-29 16:16 41.34137 -71.37675 19060 ft 284 kts 119°
2026-04-29 16:16 41.33183 -71.35367 19061 ft 284 kts 118°
2026-04-29 16:16 41.32233 -71.33046 18991 ft 287 kts 118°
2026-04-29 16:16 41.31262 -71.30689 18639 ft 290 kts 118°
2026-04-29 16:17 41.30291 -71.28353 18279 ft 287 kts 119°
2026-04-29 16:17 41.29325 -71.26034 17873 ft 285 kts 119°
2026-04-29 16:17 41.28393 -71.23801 17489 ft 283 kts 119°
2026-04-29 16:17 41.27441 -71.21523 17094 ft 281 kts 118°
2026-04-29 16:18 41.26496 -71.19260 16703 ft 279 kts 118°
2026-04-29 16:18 41.25555 -71.17008 16322 ft 277 kts 118°
2026-04-29 16:18 41.24620 -71.14773 15942 ft 276 kts 118°
2026-04-29 16:18 41.23691 -71.12556 15568 ft 275 kts 118°
2026-04-29 16:19 41.22765 -71.10343 15196 ft 273 kts 118°
2026-04-29 16:19 41.21842 -71.08141 14830 ft 272 kts 118°
2026-04-29 16:19 41.20921 -71.05944 14473 ft 271 kts 117°
2026-04-29 16:19 41.20003 -71.03758 14114 ft 269 kts 118°
2026-04-29 16:20 41.19092 -71.01592 13752 ft 268 kts 117°
2026-04-29 16:20 41.18199 -70.99469 13359 ft 266 kts 117°
2026-04-29 16:20 41.17297 -70.97327 12964 ft 265 kts 117°
2026-04-29 16:20 41.16398 -70.95195 12578 ft 264 kts 118°
2026-04-29 16:21 41.15503 -70.93072 12195 ft 263 kts 117°
2026-04-29 16:21 41.14611 -70.90958 11812 ft 262 kts 117°
2026-04-29 16:21 41.13720 -70.88844 11438 ft 264 kts 117°
2026-04-29 16:21 41.12818 -70.86705 11076 ft 267 kts 118°
2026-04-29 16:22 41.11987 -70.84529 10756 ft 264 kts 108°
2026-04-29 16:22 41.11644 -70.82160 10382 ft 260 kts 92°
2026-04-29 16:22 41.11609 -70.79786 10036 ft 255 kts 87°
2026-04-29 16:22 41.11668 -70.77451 9650 ft 252 kts 86°
2026-04-29 16:23 41.11733 -70.75139 9256 ft 250 kts 86°
2026-04-29 16:23 41.11778 -70.72845 8867 ft 248 kts 86°
2026-04-29 16:23 41.11804 -70.70568 8477 ft 246 kts 87°
2026-04-29 16:23 41.11815 -70.68311 8096 ft 244 kts 88°
2026-04-29 16:24 41.11817 -70.66070 7719 ft 241 kts 88°
2026-04-29 16:24 41.11815 -70.63850 7345 ft 240 kts 88°
2026-04-29 16:24 41.11811 -70.61645 6974 ft 238 kts 88°
2026-04-29 16:24 41.11807 -70.59455 6610 ft 237 kts 88°
2026-04-29 16:25 41.11802 -70.57282 6235 ft 234 kts 88°
2026-04-29 16:25 41.11796 -70.55174 5855 ft 229 kts 88°
2026-04-29 16:25 41.11792 -70.53074 5460 ft 226 kts 88°
2026-04-29 16:25 41.11786 -70.51017 5095 ft 220 kts 88°
2026-04-29 16:26 41.11781 -70.49007 4715 ft 215 kts 88°
2026-04-29 16:26 41.11776 -70.47042 4326 ft 211 kts 88°
2026-04-29 16:26 41.11771 -70.45112 3942 ft 205 kts 87°
2026-04-29 16:26 41.11761 -70.43307 3561 ft 187 kts 87°
2026-04-29 16:27 41.11752 -70.41666 3192 ft 175 kts 86°
2026-04-29 16:27 41.11744 -70.40099 2805 ft 166 kts 86°
2026-04-29 16:27 41.11738 -70.38601 2423 ft 159 kts 86°
2026-04-29 16:27 41.11731 -70.37179 2183 ft 147 kts 85°
2026-04-29 16:28 41.11722 -70.35891 2078 ft 132 kts 84°
2026-04-29 16:28 41.11716 -70.34747 2029 ft 119 kts 83°
2026-04-29 16:28 41.11718 -70.33674 2000 ft 115 kts 82°
2026-04-29 16:28 41.11722 -70.32641 1992 ft 112 kts 83°
2026-04-29 16:29 41.11724 -70.31611 1995 ft 111 kts 83°
2026-04-29 16:29 41.11724 -70.31266 1997 ft 111 kts 83°
2026-04-29 16:29 41.11721 -70.28519 1990 ft 115 kts 84°
2026-04-29 16:30 41.11717 -70.27454 1991 ft 116 kts 83°
2026-04-29 16:30 41.11711 -70.26384 1990 ft 116 kts 83°
2026-04-29 16:30 41.11706 -70.25323 1984 ft 115 kts 84°
2026-04-29 16:30 41.11839 -70.24318 1991 ft 109 kts 58°
2026-04-29 16:31 41.12313 -70.23538 1993 ft 109 kts 49°
2026-04-29 16:31 41.12851 -70.22829 1987 ft 109 kts 46°
2026-04-29 16:31 41.13436 -70.22112 1633 ft 130 kts 44°
2026-04-29 16:31 41.14156 -70.21249 1356 ft 135 kts 43°
2026-04-29 16:32 41.14797 -70.20482 1316 ft 119 kts 43°
2026-04-29 16:32 41.15192 -70.19989 1304 ft 113 kts 44°
2026-04-29 16:32 41.15902 -70.19036 1267 ft 103 kts 45°
2026-04-29 16:32 41.16347 -70.18404 1237 ft 88 kts 46°
2026-04-29 16:33 41.17125 -70.17282 1172 ft 79 kts 48°
2026-04-29 16:33 41.17502 -70.16754 1124 ft 79 kts 48°
2026-04-29 16:33 41.17890 -70.16219 1108 ft 82 kts 47°
2026-04-29 16:34 41.18294 -70.15677 1082 ft 83 kts 45°
2026-04-29 16:34 41.18712 -70.15148 1052 ft 83 kts 45°
2026-04-29 16:34 41.19132 -70.14622 1013 ft 83 kts 44°
2026-04-29 16:34 41.19548 -70.14100 1009 ft 81 kts 44°
2026-04-29 16:35 41.19814 -70.13753 1007 ft 80 kts 44°
2026-04-29 16:35 41.20213 -70.13231 1010 ft 81 kts 45°
2026-04-29 16:35 41.20748 -70.12522 1008 ft 82 kts 46°
2026-04-29 16:35 41.21145 -70.11973 1002 ft 83 kts 46°
2026-04-29 16:36 41.21542 -70.11408 882 ft 79 kts 46°
2026-04-29 16:36 41.21784 -70.11064 820 ft 72 kts 44°
2026-04-29 16:36 41.22113 -70.10616 755 ft 64 kts 42°
2026-04-29 16:36 41.22421 -70.10228 677 ft 58 kts 41°
2026-04-29 16:37 41.22724 -70.09847 626 ft 65 kts 41°
2026-04-29 16:37 41.23090 -70.09393 523 ft 78 kts 41°
2026-04-29 16:37 41.23491 -70.08888 393 ft 79 kts 42°
2026-04-29 16:37 41.23895 -70.08396 288 ft 78 kts 44°
2026-04-29 16:38 41.24243 -70.07868 232 ft 74 kts 47°
2026-04-29 16:38 41.24580 -70.07395 107 ft 66 kts 44°
2026-04-29 16:38 41.24871 -70.07015 47 ft 49 kts 38°
2026-04-29 16:38 41.25083 -70.06751 46 ft 39 kts 44°
2026-04-29 16:39 41.25272 -70.06501 46 ft 36 kts 47°
2026-04-29 16:39 41.25393 -70.06428 49 ft 14 kts 320°
2026-04-29 16:39 41.25462 -70.06442 50 ft 7 kts 34°
2026-04-29 16:39 41.25524 -70.06362 50 ft 13 kts 34°
2026-04-29 16:40 41.25592 -70.06354 50 ft 8 kts 19°
2026-04-29 16:40 41.25642 -70.06353 50 ft 4 kts
2026-04-29 16:40 41.25652 -70.06344 50 ft 1 kts 46°
2026-04-29 16:40 41.25654 -70.06342 50 ft 0 kts 47°